COSMOS 886 DEB, 9824

Orbit data source: Space-Track

COSMOS 886 DEB, 9824 is space debris in LEO originally from a launch on Mon, 27 Dec 1976 UTC launched from the Tyuratam Missile And Space Complex (TTMTR). Debris objects in space refer to the collection of defunct objects orbiting the Earth. Examples of debris include non-operational satellites, rocket bodies, and fragments generated from explosions, collisions, or faulty payload assembly.

Loading next visibility...
Identifier
9824, 1976-126AL
Orbit
LEO
Country
Flag of CISCIS
Related business
Manufacturer
Unknown
Mission
Spacecraft
Bus & Motor
Unknown
Mass
Unknown
Launch date (UTC)
1976-12-27 (49 years ago)
Launch vehicle
Unknown
Launch site
Tyuratam Missile And Space Complex (TTMTR)
Object type
Payload
Rocket body
Debris
Shape & HBR
Unknown shape, 0.1 m
Radar Cross Section
Medium (>0.1 m² and <1 m²)

Expand to show TLE details & history
Last TLE update: 19 hours ago

TLE from 19 hours ago
0 COSMOS 886 DEB
1 09824U 76126AL  26175.08359971  .00002026  00000-0  49066-3 0  9996
2 09824  65.8111  56.5039 0856139  24.7793 339.1954 13.32740639355598
Epoch: 2026-06-24T02:00Z
TLE epoch observation values (Epoch: 2026-06-24T02:00:23.014Z)
Latitude
0.00003°
Longitude
114.16212°
Altitude
544.792 km
Speed
7.884 km/s
True Right ascension
03h 46m 00s
True Declination
0° 00' 00"
Sunlit
Object was in daylight at epoch
Visualization orbit readout
Latitude
Unknown
Longitude
Unknown
Altitude
Unknown
Speed
Unknown
Apparent Right ascension
Unknown
Apparent Declination
Unknown
Sunlit
N/A
Visualization observer readout
Local Sidereal Time
08:03:53
Azimuth
Unknown
Elevation
Unknown
Doppler factor
Unknown
Orbital elements
Apogee altitude
1,778.205 km
Perigee altitude
491.751 km
Semi-major axis
7,513.115 km
Eccentricity
0.08561
Inclination
65.8111°
RAAN
56.5039°
Arg. of periapsis
24.7793°
True anomaly
335.32843°
Mean anomaly
339.1954°
Eccentric anomaly
337.30262°
Mean motion
3.33283 °/min
Orbital period
108.02 mins
BSTAR
0.00049066
Loading maneuver chart data...
Computing Atmospheric mass density...

Documentation

Showing up to 5 results
|